sat.trackr.live / text

‹ back to catalog

STARLINK-32497

NORAD 62161 · 2024-224Y

PAYLOAD ACTIVE UNKNOWN

§ Identity

Operator
Country
US
Launch date
2024-11-30
Launch site
AFETR
Launch vehicle
Mass (kg)
RCS (m²)

Purposes: comms

External: N2YO · Heavens-Above · Gunter

§ Orbital elements

Epoch: 2026-05-25T04:59:50.410176Z

Period
94.27 min
Inclination
42.9999°
Eccentricity
0.0001066
Mean motion
15.27597263 rev/d
Perigee alt
482.3 km
Apogee alt
483.7 km
Semi-major
6,861.1 km
B*
7.0380e-4
RAAN
89.3319°
Arg perigee
271.9168°
Mean anomaly
88.1562°
Rev number
8,413

§ Raw data

STARLINK-324971 62161U 24224Y   26145.20822234  .00019166  00000+0  70380-3 0  99942 62161  42.9999  89.3319 0001066 271.9168  88.1562 15.27597263 84133

JSON: /api/v1/satellites/62161 · /tle

For live sub-satellite position, see the globe view (requires WebGL).

§ Visibility from observer

Set your observer location to see the next 7 days of passes ≥ 10°. The values pass through the URL so the page stays shareable.

No JS? Fill the form by hand. The geolocation button needs JavaScript.